Location: Hopewell Observatory
(38.8698°N, 77.6988°W)
Time: 08:49:58
(UTC-05:00)

Daily predictions for brighter satellites

Satellite Brightness Start Highest point End
(mag) Time Altitude Azimuth Time Altitude Azimuth Time Altitude Azimuth
Cosmos 1743 4.0 17:11:38 10° NNE 17:14:39 21° ENE 17:17:39 10° SE
CSL-04 Rocket 4.3 17:10:09 10° S 17:15:34 65° WSW 17:21:06 10° NNW
Ariane Rocket 4.1 17:10:48 10° S 17:15:42 50° W 17:20:38 10° NNW
Cosmos 1536 Rocket 3.9 17:21:14 10° SSW 17:25:42 74° W 17:30:11 10° N
Timation 1 Rocket 4.3 17:24:10 10° SSW 17:30:05 75° ESE 17:36:04 10° NNE
Abrixas 2.5 17:28:12 10° WNW 17:31:09 82° SW 17:34:06 10° SE
Cosmos 1484 Rocket 3.7 17:33:00 10° SE 17:36:02 24° ENE 17:39:05 10° NNE
YAOGAN 1 2.5 17:31:49 10° SSE 17:36:05 64° ENE 17:40:23 10° N
CORIOLIS 4.1 17:31:20 10° SSE 17:36:40 65° ENE 17:42:00 10° N
Timation 2 Rocket 4.2 17:31:06 10° NNW 17:38:00 80° ENE 17:44:53 10° SSE
Cosmos 2369 Rocket 3.8 17:36:26 10° SE 17:39:11 14° E 17:40:59 12° ENE
SPOT 3 Rocket 3.5 17:35:34 10° SSE 17:40:44 81° ENE 17:45:56 10° NNW
NOSS 2-1 (D) 3.5 17:37:07 10° SW 17:40:54 74° NW 17:45:08 10° NNE
NOSS 2-1 (C) 3.5 17:37:45 10° SW 17:41:35 75° NW 17:45:51 10° NNE
BREEZE M DEB (TANK) 3.2 17:30:37 10° SW 17:41:45 86° SSE 17:44:40 15° ENE
COSMOS 2487 3.4 17:39:05 10° NNW 17:42:35 53° WSW 17:46:04 10° S
NOSS 7 (D) 4.3 17:45:16 10° SSW 17:48:50 74° ESE 17:51:28 15° NE
Meteor 2-4 Rocket 3.8 17:46:38 10° SSE 17:51:43 46° E 17:56:49 10° NNE
Cosmos 1975 4.2 17:50:49 10° NNW 17:54:38 41° W 17:58:25 10° SSW
Nadezhda 3 Rocket 4.0 17:48:47 10° S 17:55:00 89° E 18:01:20 10° N
Meteor 1-13 Rocket 4.3 17:50:45 10° S 17:56:28 88° W 18:02:22 10° N
Okean 2 4.2 17:54:02 10° SSE 17:57:42 31° E 18:00:15 17° NE
Delta 2 Rocket 3.7 17:54:42 10° W 17:58:09 49° S 18:01:05 15° ESE
Cosmos 1190 Rocket 4.4 17:53:47 10° N 17:58:40 38° ENE 18:03:29 10° SE
NOSS 2-1 (E) 4.0 17:56:35 10° SW 18:00:21 52° NW 18:04:23 11° NNE
SKYMED 2 3.7 17:58:13 10° NNE 18:02:29 53° E 18:06:43 10° S
Cosmos 1340 3.7 17:59:29 10° SSE 18:02:34 24° E 18:02:54 24° E
CZ-4 R/B 3.2 18:03:58 10° SSW 18:07:47 35° W 18:11:34 10° NNW
BREEZE-M DEB (TANK) 4.5 18:03:56 10° WNW 18:08:58 23° N 18:11:00 17° NE
GRACE-2 4.4 18:08:36 10° S 18:11:20 60° W 18:14:05 10° N
GRACE-1 4.4 18:09:02 10° S 18:11:45 58° W 18:14:31 10° N
MONITOR-E 4.3 18:10:43 10° S 18:13:54 77° W 18:17:06 10° NNW
IDEFIX/ARIANE 42P 3.6 18:09:20 10° S 18:14:19 48° W 18:19:21 10° NNW
MSX 4.0 18:08:36 10° S 18:14:20 78° WSW 18:20:06 10° NNW
Cosmos 1892 Rocket 3.8 18:10:35 10° SSE 18:14:44 45° E 18:17:16 21° NNE
COSMOS 2441 4.4 18:10:43 10° SSE 18:15:35 84° WSW 18:20:32 10° NNW
CZ-2C R/B 3.7 18:11:41 10° S 18:16:29 44° W 18:21:24 10° NNW
Cosmos 1727 Rocket 4.4 18:11:09 10° SSE 18:16:44 37° E 18:21:20 15° NNE
USA 234 3.5 18:11:47 15° NE 18:17:14 66° NW 18:23:41 10° WSW
Cosmos 1726 Rocket 3.6 18:16:52 10° N 18:21:15 53° E 18:25:36 10° SSE
Cosmos 1666 2.6 18:20:05 10° N 18:23:59 83° E 18:27:52 10° S
DMSP B5D1-3 4.4 18:20:11 10° NNE 18:25:20 70° ESE 18:30:25 10° S
Meteor 2-8 Rocket 4.3 18:19:52 10° S 18:25:54 73° E 18:32:01 10° NNE
Cosmos 1833 Rocket 3.9 18:30:10 10° NW 18:35:28 44° WSW 18:40:45 10° S
Cosmos 1934 Rocket 4.0 18:30:17 10° N 18:36:33 89° W 18:42:53 10° S
NOSS 3-4 (A) 3.8 18:29:36 10° NW 18:36:43 87° WSW 18:44:15 10° SSE
NOSS 3-4 (C) 3.8 18:29:42 10° NW 18:36:49 88° WSW 18:44:21 10° SSE
Tiangong 1 2.3 18:34:08 10° WNW 18:36:16 32° NNW 18:36:16 32° NNW
Cosmos 1606 Rocket 3.7 18:36:44 10° N 18:41:13 75° W 18:45:39 10° S
BREEZE M DEB (TANK) 3.7 18:40:11 10° NW 18:44:20 62° NE 18:50:56 25° ESE
Cosmos 2082 Rocket 4.2 18:42:07 10° NW 18:46:58 29° WSW 18:51:47 10° SSW
Cosmos 407 Rocket 3.4 18:42:46 10° NNW 18:47:56 90° WSW 18:53:07 10° SSE
COSMO-SKYMED 1 3.7 18:46:24 10° N 18:50:30 42° WNW 18:54:35 10° SW
Cosmos 1339 Rocket 4.3 18:44:46 10° S 18:50:42 62° E 18:53:26 33° NNE
Cosmos 2056 Rocket 4.5 18:45:35 10° SW 18:50:44 46° WNW 18:55:04 14° N
Meteor 1-28 Rocket 3.6 18:51:38 47° NNW 18:52:27 62° WNW 18:56:11 10° SSW
Cosmos 676 Rocket 3.8 18:55:26 10° NNW 19:00:40 84° ENE 19:02:36 40° SSE
Cosmos 1954 Rocket 4.3 18:59:09 10° NNW 19:03:04 50° N 19:03:04 50° N
Cosmos 1153 Rocket 4.3 19:11:58 10° N 19:18:09 88° W 19:24:17 10° S
Cosmos 2058 Rocket 4.1 19:15:04 10° NNW 19:19:19 44° W 19:23:30 10° SSW
Cosmos 2369 Rocket 2.3 19:16:49 10° SSW 19:22:28 73° WNW 19:22:50 71° NNW
ATLAS 3B CENTAUR R/B 4.2 19:16:45 10° W 19:33:43 40° SSW 19:37:23 28° SSE
Cosmos 1943 Rocket 3.9 19:41:30 10° SSW 19:43:25 22° SSW 19:43:25 22° SSW
FALCON 9 R/B 3.6 20:00:51 10° W 20:13:37 50° SW 20:13:37 50° SW
